[[{"header":{"parameterUnit":"m.s-1","parameterCategory":1,"la1":30.2991,"la2":30.254,"lo1":-89.0895,"lo2":-89.0444,"dy":0.0017,"dx":0.0017,"nx":28,"ny":28,"refTime":"2023-03-21T21:00:00:Z","depth":0,"parameterNumber":2,"parameterNumberName":"U-component_of_WINDS"},"data":[0,0,0,0,0,0,0,0,0,0,0,0,0,0,0,0,0,0,0,0,0,0,0,0,0,0,0,0,0,0,0,0,0,0,0,0,0,0,0,0,0,0,0,0,0,0,0,0,0,0,0,0,0,0,0,0,0,0,-3.799,-3.7991,0,-3.8081,-3.8082,-3.8083,-3.8085,-3.8083,-3.8082,-3.8081,-3.8173,-3.8176,-3.818,0,0,0,0,0,0,0,0,0,0,0,0,0,-3.7817,-3.782,-3.799,-3.7991,-3.7992,-3.8081,-3.8082,-3.8083,-3.8085,-3.8083,-3.8082,-3.8081,-3.8172,-3.8176,-3.818,0,0,0,0,0,0,0,0,0,0,0,0,0,-3.7899,-3.7821,-3.799,-3.8004,-3.8006,-3.8081,-3.8082,-3.8084,-3.8085,-3.8083,-3.8082,-3.808,-3.817,-3.8175,-3.8181,-3.8247,0,0,-3.8197,-3.8199,0,0,0,0,0,0,0,0,-3.7894,-3.7905,-3.8001,-3.8003,-3.8005,-3.807,-3.8055,-3.8138,-3.8085,-3.8055,-3.8081,-3.8079,-3.814,-3.8147,-3.8168,-3.8251,-3.8255,-3.8197,-3.82,-3.8202,-3.8204,0,0,0,0,0,0,0,-3.7888,-3.7901,-3.8026,-3.8002,-3.8005,-3.8005,-3.8015,-3.8071,-3.8106,-3.8057,-3.8058,-3.8069,-3.8141,-3.8163,-3.817,-3.8257,-3.8197,-3.8202,-3.8205,-3.8207,-3.8398,-3.84,0,0,0,0,0,0,-3.788,-3.7896,-3.8023,-3.8029,-3.7944,-3.801,-3.8021,-3.8051,-3.8105,-3.8112,-3.807,-3.8068,-3.8155,-3.8164,-3.8174,-3.8254,-3.8202,-3.8207,-3.821,-3.8396,-3.8399,-3.8401,0,0,0,0,0,0,-3.7876,-3.7891,-3.8019,-3.7963,-3.7979,-3.8015,-3.8048,-3.8053,-3.8076,-3.8115,-3.8121,-3.8086,-3.8154,-3.8166,-3.8229,-3.8257,-3.821,-3.8214,-3.8394,-3.8397,-3.84,-3.8416,0,0,0,0,0,0,-3.7871,-3.789,-3.7916,-3.7963,-3.7982,-3.8073,-3.805,-3.8056,-3.8085,-3.8084,-3.8132,-3.8138,-3.8154,-3.8221,-3.8234,-3.8263,-3.8219,-3.8392,-3.8395,-3.8399,-3.8413,-3.8419,-3.8424,0,0,0,0,0,-3.7865,-3.7916,-3.7917,-3.7932,-3.8015,-3.8075,-3.8086,-3.8103,-3.8087,-3.8113,-3.8138,-3.8136,-3.8253,-3.8227,-3.8242,-3.8273,-3.839,-3.8394,-3.8399,-3.841,-3.8417,-3.8424,0,0,0,0,0,0,-3.787,-3.7923,-3.7924,-3.7992,-3.8029,-3.8075,-3.8108,-3.811,-3.8152,-3.8149,-3.8169,-3.818,-3.8242,-3.8264,-3.8235,-3.8341,-3.8319,-3.8327,-3.8323,-3.833,-3.8336,-3.8328,-3.8223,0,0,0,0,0,-3.7879,-3.7924,-3.7967,-3.8023,-3.8042,-3.8072,-3.8099,-3.8109,-3.8148,-3.8164,-3.8193,-3.8231,-3.8276,-3.8305,-3.8348,-3.8417,-3.8427,-3.8446,-3.8452,-3.8456,-3.8461,-3.8499,-3.8507,-3.8415,-3.8415,-3.8415,0,0,-3.7898,-3.7933,-3.7959,-3.8025,-3.8055,-3.81,-3.8085,-3.8134,-3.8167,-3.8171,-3.8231,-3.8255,-3.8298,-3.8364,-3.8394,-3.8384,-3.849,-3.8462,-3.8465,-3.8468,-3.8504,-3.8513,-3.852,-3.8418,-3.8418,-3.8417,0,0,-3.7956,-3.7987,-3.8036,-3.8067,-3.8113,-3.8132,-3.8144,-3.8191,-3.8206,-3.8268,-3.8271,-3.8312,-3.8389,-3.8419,-3.8445,-3.8516,-3.8515,-3.853,-3.8558,-3.8594,-3.8601,-3.8607,-3.8631,-3.8639,-3.8535,-3.8535,-3.8535,0,-3.7973,-3.8042,-3.8061,-3.811,-3.8138,-3.8145,-3.8195,-3.8224,-3.8281,-3.8301,-3.829,-3.8387,-3.8416,-3.8489,-3.8506,-3.8527,-3.8541,-3.8523,-3.8598,-3.8605,-3.8611,-3.8634,-3.8643,-3.8537,-3.8537,-3.8536,-3.8536,0,-3.806,-3.8108,-3.8143,-3.8198,-3.8231,-3.828,-3.8307,-3.8338,-3.8346,-3.8367,-3.8429,-3.8466,-3.8516,-3.8535,-3.8543,-3.8609,-3.8601,-3.8594,-3.8573,-3.8621,-3.8642,-3.8652,-3.8539,-3.8538,-3.8538,-3.8537,0,0,-3.8121,-3.8188,-3.82,-3.8225,-3.8277,-3.8314,-3.8364,-3.8414,-3.8439,-3.8479,-3.8521,-3.8587,-3.8581,-3.861,-3.8622,-3.8654,-3.8706,-3.8643,-3.8644,-3.8652,-3.8779,-3.8782,-3.8792,-3.8707,-3.8709,-3.871,-3.8774,0,-3.8182,-3.827,-3.829,-3.8365,-3.8409,-3.8417,-3.846,-3.8496,-3.8518,-3.8558,-3.8582,-3.8628,-3.8617,-3.8635,-3.8667,-3.8693,-3.8731,-3.8689,-3.8744,-3.8746,-3.8731,-3.8803,-3.8807,-3.8865,-3.8783,-3.8785,-3.8786,0,-3.8265,-3.8307,-3.8387,-3.8433,-3.8452,-3.849,-3.8538,-3.8577,-3.8618,-3.8632,-3.8665,-3.8674,-3.8726,-3.8704,-3.8775,-3.8745,-3.877,-3.8786,-3.8789,-3.8793,-3.8767,-3.8807,-3.8885,-3.8892,-3.88,-3.8798,-3.8797,0,-3.8299,-3.8376,-3.8433,-3.8455,-3.851,-3.8537,-3.8561,-3.8601,-3.863,-3.8672,-3.8691,-3.8739,-3.8764,-3.8801,-3.8822,-3.8805,-3.8891,-3.8871,-3.8903,-3.8902,-3.8918,-3.8916,-3.8998,-3.8938,-3.8938,-3.8938,-3.8937,0,-3.8364,-3.8412,-3.8449,-3.8484,-3.8538,-3.8561,-3.8614,-3.8638,-3.8674,-3.8714,-3.8725,-3.8762,-3.8789,-3.883,-3.8848,-3.8903,-3.8915,-3.8927,-3.893,-3.8925,-3.8923,-3.8939,-3.8934,-3.894,-3.8939,-3.8939,-3.8939,0,-3.8409,-3.8437,-3.8499,-3.8547,-3.856,-3.8598,-3.8639,-3.8673,-3.8696,-3.8746,-3.8759,-3.8794,-3.8843,-3.8869,-3.8931,-3.8942,-3.9004,-3.9006,-3.8989,-3.899,-3.9019,-3.9016,-3.9113,-3.9126,-3.9059,-3.9059,-3.906,0,-3.8448,-3.8485,-3.8537,-3.8564,-3.8589,-3.8634,-3.8663,-3.8688,-3.8718,-3.8769,-3.8797,-3.8847,-3.8887,-3.8965,-3.8996,-3.9043,-3.9045,-3.9076,-3.9052,-3.9045,-3.9043,-3.9039,-3.9043,-3.9079,-3.908,-3.908,-3.9081,0,-3.8512,-3.8524,-3.8567,-3.8614,-3.8649,-3.8688,-3.8726,-3.8748,-3.8779,-3.8812,-3.8863,-3.8894,-3.8957,-3.9006,-3.9055,-3.908,-3.9085,-3.9089,-3.9098,-3.9091,-3.9079,-3.9084,-3.8999,-3.9085,-3.9085,-3.9085,-3.9084,-3.9084,-3.8554,-3.8587,-3.8629,-3.8676,-3.8708,-3.8743,-3.8777,-3.8805,-3.8847,-3.89,-3.8912,-3.8965,-3.9006,-3.9073,-3.9099,-3.9141,-3.9135,-3.9149,-3.9152,-3.9154,-3.9154,-3.9074,-3.915,-3.915,-3.915,-3.915,-3.915,0,-3.8618,-3.8645,-3.8689,-3.8741,-3.8778,-3.8781,-3.8824,-3.8854,-3.8901,-3.8939,-3.8979,-3.9037,-3.9084,-3.9119,-3.9168,-3.9194,-3.9198,-3.9206,-3.9203,-3.9209,-3.9158,-3.9144,-3.9202,-3.9202,-3.9202,-3.9202,-3.9202,-3.9202,-3.8655,-3.8711,-3.8728,-3.8799,-3.8827,-3.8878,-3.8902,-3.8935,-3.8965,-3.9029,-3.9069,-3.9092,-3.9129,-3.918,-3.9224,-3.9233,-3.925,-3.9257,-3.9267,-3.9218,-3.9212,-3.9207,-3.9194,-3.9261,-3.9262,-3.9313,-3.9314,-3.9314]},{"header":{"parameterUnit":"m.s-1","parameterCategory":1,"la1":30.2991,"la2":30.254,"lo1":-89.0895,"lo2":-89.0444,"dy":0.0017,"dx":0.0017,"nx":28,"ny":28,"refTime":"2023-03-21T21:00:00:Z","depth":0,"parameterNumber":3,"parameterNumberName":"V-component_of_WINDS"},"data":[0,0,0,0,0,0,0,0,0,0,0,0,0,0,0,0,0,0,0,0,0,0,0,0,0,0,0,0,0,0,0,0,0,0,0,0,0,0,0,0,0,0,0,0,0,0,0,0,0,0,0,0,0,0,0,0,0,0,4.0192,4.0191,0,4.0154,4.0153,4.0153,4.0071,4.0069,4.0067,4.0066,4.0028,4.0029,4.0029,0,0,0,0,0,0,0,0,0,0,0,0,0,4.0197,4.0197,4.0192,4.0191,4.0191,4.0154,4.0153,4.0153,4.0071,4.0069,4.0067,4.0065,4.0028,4.0028,4.0029,0,0,0,0,0,0,0,0,0,0,0,0,0,4.018,4.0197,4.0192,4.0146,4.0141,4.0154,4.0153,4.0152,4.0071,4.0069,4.0066,4.0064,4.0028,4.0028,4.0029,4.0084,0,0,4.0032,4.0032,0,0,0,0,0,0,0,0,4.0181,4.018,4.0153,4.0149,4.0144,4.0114,4.0141,4.013,4.0072,4.0098,4.0066,4.0063,4.0059,4.0057,4.0055,4.0082,4.0081,4.0032,4.0032,4.0033,4.0033,0,0,0,0,0,0,0,4.0182,4.0181,4.0177,4.0153,4.0147,4.0128,4.0122,4.0138,4.0093,4.0095,4.0089,4.0086,4.0056,4.0055,4.0054,4.008,4.0032,4.0033,4.0033,4.0033,4.0152,4.0154,0,0,0,0,0,0,4.019,4.0183,4.0178,4.0175,4.0157,4.013,4.0124,4.0126,4.0092,4.0085,4.0088,4.0082,4.0055,4.0053,4.0052,4.0114,4.0033,4.0033,4.0034,4.0149,4.0152,4.0155,0,0,0,0,0,0,4.019,4.019,4.0179,4.0177,4.0175,4.0132,4.0136,4.0127,4.0125,4.0087,4.0079,4.0095,4.0052,4.0051,4.0077,4.0112,4.0034,4.0035,4.0146,4.015,4.0154,4.024,0,0,0,0,0,0,4.0191,4.0191,4.0211,4.0179,4.0175,4.0204,4.0138,4.0128,4.0127,4.0119,4.0091,4.0084,4.005,4.0076,4.0078,4.0112,4.0035,4.0143,4.0148,4.0152,4.0234,4.0246,4.0257,0,0,0,0,0,4.0191,4.0237,4.0212,4.0212,4.0199,4.0207,4.0205,4.0164,4.013,4.015,4.0126,4.0085,4.0108,4.008,4.0081,4.0115,4.014,4.0146,4.0152,4.0228,4.0244,4.0257,0,0,0,0,0,0,4.0274,4.0231,4.0204,4.024,4.0228,4.0193,4.0216,4.0182,4.0179,4.0172,4.0122,4.0117,4.015,4.0135,4.0104,4.0167,4.0118,4.0124,4.0175,4.019,4.0201,4.0204,4.0036,0,0,0,0,0,4.0297,4.0306,4.0268,4.0304,4.0299,4.0259,4.0261,4.0231,4.0217,4.0211,4.0188,4.0176,4.018,4.0184,4.0186,4.0231,4.0225,4.0256,4.0268,4.0278,4.0284,4.0307,4.0321,4.0175,4.0175,4.0175,0,0,4.0343,4.0321,4.033,4.032,4.0307,4.0318,4.0255,4.027,4.0278,4.0213,4.0236,4.022,4.0203,4.0239,4.0253,4.0228,4.0323,4.0285,4.0293,4.0294,4.0315,4.0329,4.0341,4.0179,4.0178,4.0177,0,0,4.0433,4.0418,4.0445,4.0434,4.0415,4.0388,4.0395,4.0366,4.0352,4.0374,4.0326,4.0336,4.0345,4.0335,4.0331,4.042,4.0383,4.0422,4.0483,4.0506,4.0518,4.0528,4.056,4.0572,4.0428,4.0429,4.0429,0,4.0493,4.0508,4.0464,4.0482,4.048,4.0422,4.045,4.0441,4.0424,4.0424,4.0396,4.0406,4.0391,4.0424,4.0446,4.0445,4.0451,4.0424,4.052,4.0529,4.0538,4.0568,4.058,4.0433,4.0433,4.0432,4.0432,0,4.0583,4.0594,4.0619,4.0604,4.0604,4.0628,4.0588,4.0594,4.0565,4.0542,4.0566,4.0546,4.0543,4.0549,4.0521,4.0579,4.0564,4.0528,4.0477,4.0557,4.0585,4.0596,4.044,4.0439,4.0437,4.0436,0,0,4.0723,4.0684,4.0694,4.0687,4.0662,4.067,4.0692,4.0689,4.0695,4.0686,4.0703,4.0712,4.068,4.0676,4.0646,4.0667,4.0739,4.0629,4.0627,4.065,4.0802,4.0829,4.0843,4.0715,4.0717,4.0718,4.0804,0,4.0807,4.084,4.0802,4.0844,4.0854,4.08,4.0819,4.0807,4.0786,4.0792,4.077,4.0777,4.0734,4.0731,4.0749,4.0726,4.0769,4.072,4.073,4.0731,4.0736,4.0857,4.0884,4.0966,4.0814,4.0816,4.0817,0,4.0909,4.0905,4.0947,4.0921,4.0924,4.0941,4.0936,4.0943,4.0928,4.0912,4.0908,4.0873,4.0893,4.0844,4.0872,4.0839,4.0842,4.0831,4.0834,4.0832,4.0779,4.0859,4.0991,4.1003,4.0833,4.0832,4.0831,0,4.1007,4.1012,4.1038,4.1033,4.1003,4.1017,4.1005,4.0988,4.0989,4.0985,4.0986,4.0985,4.0984,4.0984,4.095,4.0918,4.0982,4.093,4.0969,4.097,4.0984,4.0984,4.1119,4.0987,4.0987,4.0987,4.0987,0,4.1104,4.1132,4.1081,4.1097,4.1128,4.1085,4.1116,4.1099,4.1085,4.1098,4.1052,4.1065,4.1018,4.1027,4.1,4.1028,4.1028,4.1016,4.1008,4.1019,4.1021,4.102,4.1013,4.099,4.0989,4.0989,4.0988,0,4.1218,4.1184,4.1209,4.118,4.1173,4.1197,4.1171,4.1186,4.1163,4.1179,4.1181,4.1145,4.1153,4.1119,4.1121,4.1103,4.1144,4.1127,4.1149,4.1143,4.1184,4.1181,4.1322,4.1339,4.1198,4.1199,4.12,0,4.1282,4.1302,4.1275,4.128,4.127,4.1279,4.128,4.1239,4.1242,4.1228,4.1245,4.1249,4.1249,4.1264,4.1239,4.1241,4.1223,4.1273,4.1223,4.1234,4.1224,4.1223,4.1225,4.1283,4.1285,4.1286,4.1287,0,4.1399,4.1382,4.1385,4.1383,4.1385,4.1381,4.1375,4.1382,4.1338,4.1344,4.1351,4.1352,4.1354,4.1359,4.1356,4.1344,4.1309,4.1304,4.1313,4.1324,4.1336,4.133,4.1176,4.13,4.1299,4.1298,4.1297,4.1297,4.149,4.1505,4.1489,4.1494,4.1485,4.148,4.1492,4.1471,4.1476,4.1474,4.1451,4.1463,4.1449,4.1441,4.1434,4.1443,4.142,4.1433,4.1436,4.144,4.1447,4.1335,4.1442,4.1442,4.1442,4.1441,4.1441,0,4.1604,4.1591,4.1597,4.1589,4.1593,4.156,4.1551,4.1557,4.1568,4.1559,4.1561,4.157,4.1574,4.155,4.1552,4.1564,4.1548,4.1566,4.1565,4.1563,4.1468,4.146,4.1579,4.1579,4.1579,4.1579,4.1579,4.1579,4.1665,4.169,4.1671,4.1692,4.1679,4.169,4.1688,4.1684,4.1676,4.1688,4.1692,4.1676,4.1661,4.1661,4.1665,4.1657,4.166,4.1684,4.1671,4.1583,4.1569,4.1556,4.1549,4.1685,4.1685,4.1765,4.1766,4.1766]}]]